Flag Weather past 2 weeks in Galway, Ireland

Now
45 °F

Fog.


Feels Like: 45 °F
Forecast: 45 / 52 °F
Wind: No wind

Location: Shannon Airport

Current Time: Nov 29, 2014 at 9:13:50 AM

Latest Report: Nov 29, 2014 at 9:00 AM


Visibility: 1 mi

Pressure: 29.80 "Hg

Humidity: 100%

Dew point: 45 °F

Location of GalwayLocation

Historic Weather in Galway — Graph

°F

Galway temperature yesterday

Maximum temperature yesterday: 54 °F (at 10:30 AM)
Minimum temperature yesterday: 46 °F (at 8:30 PM)
Average temperature yesterday: 51 °F

Past Weeks' High & Low Weather Summary

 TemperatureHumidityPressure
High55 °F (Nov 21, 4:30 PM)100% (Nov 14, 10:00 AM)30.27 "Hg (Nov 14, 10:00 AM)
Low34 °F (Nov 20, 5:30 AM)62% (Nov 23, 3:00 PM)29.12 "Hg (Nov 14, 8:00 AM)
Average46 °F91%29.79 "Hg
* Reported Nov 14 8:00 AM — Nov 29 8:00 AM, Galway, Weather by CustomWeather, © 2014

Note: Actual official high and low records may vary slightly from our data, if they occured in-between our weather recording intervals... More about our weather records

Advertising

Galway weather history for previous 24 hours

 ConditionsComfort  
Time TempWeatherWind HumidityBarometerVisibility
8:00 AM
Nov 29
43 °FFog.3 mph100%29.80 "Hg1 mi
7:30 AM41 °FFog.2 mph100%29.77 "Hg1 mi
7:00 AM41 °FFog.3 mph100%29.77 "Hg1 mi
6:30 AM43 °FFog.2 mph100%29.77 "Hg1 mi
6:00 AM41 °FFog.1 mph100%29.77 "Hg1 mi
5:30 AM43 °FFog.No wind100%29.77 "Hg1 mi
5:00 AM45 °FFog.5 mph100%29.74 "Hg1 mi
4:30 AM45 °FFog.2 mph100%29.74 "Hg1 mi
4:00 AM45 °FFog.1 mph100%29.74 "Hg1 mi
3:30 AM45 °FFog.2 mph93%29.74 "Hg1 mi
3:00 AM43 °FFog.7 mph100%29.74 "Hg1 mi
2:30 AM43 °FFog.6 mph100%29.74 "Hg2 mi
2:00 AM45 °FFog.7 mph100%29.74 "Hg2 mi
1:30 AM46 °FFog.7 mph93%29.74 "Hg2 mi
1:00 AM46 °FFog.7 mph93%29.74 "Hg2 mi
12:30 AM48 °FPassing clouds.5 mph94%29.74 "Hg4 mi
12:00 AM50 °FPassing clouds.6 mph88%29.74 "Hg4 mi
11:30 PM
Nov 28
50 °FPassing clouds.8 mph88%29.71 "Hg5 mi
11:00 PM50 °FPassing clouds.7 mph88%29.71 "HgN/A
10:30 PM48 °FPassing clouds.12 mph87%29.71 "HgN/A
10:00 PM48 °FPassing clouds.7 mph87%29.71 "HgN/A
9:30 PM46 °FPassing clouds.9 mph87%29.68 "HgN/A
9:00 PM46 °FPassing clouds.9 mph93%29.68 "HgN/A
8:30 PM46 °FPassing clouds.8 mph93%29.68 "HgN/A
8:00 PM50 °FPassing clouds.9 mph82%29.68 "HgN/A
7:30 PM48 °FPassing clouds.9 mph87%29.68 "HgN/A
7:00 PM50 °FPassing clouds.8 mph88%29.65 "HgN/A
6:30 PM50 °FPassing clouds.12 mph88%29.65 "HgN/A
6:00 PM52 °FPassing clouds.9 mph82%29.62 "HgN/A
5:30 PM48 °FPassing clouds.9 mph94%29.62 "HgN/A
5:00 PM48 °FPassing clouds.6 mph87%29.62 "HgN/A
4:30 PM50 °FPassing clouds.6 mph88%29.62 "HgN/A
4:00 PM52 °FPassing clouds.9 mph88%29.59 "HgN/A
3:30 PM54 °FPassing clouds.12 mph82%29.56 "HgN/A
3:00 PM54 °FScattered clouds.13 mph82%29.56 "HgN/A
2:30 PM54 °FScattered clouds.9 mph82%29.56 "HgN/A
2:00 PM54 °FPartly sunny.3 mph82%29.56 "HgN/A
1:30 PM54 °FPartly sunny.5 mph82%29.56 "HgN/A
1:00 PM54 °FPartly sunny.6 mph82%29.53 "HgN/A
12:30 PM54 °FPartly sunny.7 mph82%29.53 "HgN/A
12:00 PM54 °FPartly sunny.9 mph82%29.53 "HgN/A
11:30 AM54 °FPartly sunny.8 mph82%29.53 "HgN/A
11:00 AM52 °FPartly sunny.12 mph88%29.50 "HgN/A
10:30 AM54 °FPartly sunny.12 mph82%29.50 "HgN/A
10:00 AM52 °FPartly sunny.13 mph88%29.50 "HgN/A
9:30 AM52 °FPartly sunny.8 mph82%29.47 "HgN/A
9:00 AM52 °FPartly sunny.10 mph82%29.47 "HgN/A
Weather by CustomWeather, © 2014

See weather overviewHow to use our weather pages